Stündliche Wetter La Martinique

Heute, 8 Mai, Samstag

Zeit Temperatur Niederschläge Wind Luftdruck Luftfeuchtigkeit
00:00 +10°C° 0 mm 4 m/S 755 mmHg 76%
01:00 +9°C° 0.2 mm 5 m/S 754 mmHg 81%
02:00 +9°C° 0.2 mm 6 m/S 754 mmHg 86%
03:00 +9°C° 0.2 mm 6 m/S 753 mmHg 91%
04:00 +10°C° 0.6 mm 7 m/S 753 mmHg 93%
05:00 +10°C° 0.6 mm 7 m/S 752 mmHg 94%
06:00 +10°C° 0 mm 7 m/S 752 mmHg 96%
07:00 +12°C° 0.1 mm 8 m/S 752 mmHg 91%
08:00 +13°C° 0.1 mm 9 m/S 751 mmHg 86%
09:00 +16°C° 0.1 mm 10 m/S 751 mmHg 82%
10:00 +17°C° 0 mm 9 m/S 751 mmHg 75%
11:00 +19°C° 0 mm 9 m/S 751 mmHg 68%
12:00 +21°C° 0 mm 9 m/S 750 mmHg 61%
13:00 +21°C° 0 mm 9 m/S 750 mmHg 61%
14:00 +21°C° 0 mm 8 m/S 750 mmHg 61%
15:00 +21°C° 0 mm 8 m/S 750 mmHg 61%
16:00 +20°C° 0 mm 7 m/S 749 mmHg 63%
17:00 +18°C° 0 mm 7 m/S 749 mmHg 65%
18:00 +17°C° 0 mm 6 m/S 749 mmHg 67%
19:00 +15°C° 0 mm 5 m/S 749 mmHg 73%
20:00 +14°C° 0 mm 5 m/S 748 mmHg 79%
21:00 +12°C° 0 mm 4 m/S 748 mmHg 85%
22:00 +12°C° 0 mm 4 m/S 748 mmHg 87%
23:00 +12°C° 0 mm 3 m/S 747 mmHg 88%

Morgen, 9 Mai, Sonntag

Zeit Temperatur Niederschläge Wind Luftdruck Luftfeuchtigkeit
00:00 +12°C° 0 mm 3 m/S 747 mmHg 89%
01:00 +11°C° 0 mm 3 m/S 746 mmHg 86%
02:00 +11°C° 0 mm 3 m/S 745 mmHg 84%
03:00 +11°C° 0 mm 3 m/S 745 mmHg 81%
04:00 +11°C° 0 mm 3 m/S 745 mmHg 79%
05:00 +12°C° 0 mm 3 m/S 744 mmHg 77%
06:00 +12°C° 0 mm 3 m/S 744 mmHg 76%
07:00 +14°C° 0 mm 4 m/S 744 mmHg 72%
08:00 +17°C° 0 mm 4 m/S 744 mmHg 69%
09:00 +18°C° 0 mm 4 m/S 744 mmHg 66%
10:00 +19°C° 0 mm 4 m/S 744 mmHg 64%
11:00 +20°C° 0 mm 4 m/S 744 mmHg 62%
12:00 +20°C° 0 mm 4 m/S 744 mmHg 61%
13:00 +20°C° 0.4 mm 4 m/S 743 mmHg 68%
14:00 +19°C° 0.4 mm 4 m/S 743 mmHg 75%
15:00 +19°C° 0.4 mm 4 m/S 743 mmHg 83%
16:00 +18°C° 0.5 mm 4 m/S 743 mmHg 85%
17:00 +15°C° 0.5 mm 4 m/S 743 mmHg 87%
18:00 +14°C° 0.5 mm 3 m/S 743 mmHg 89%
19:00 +14°C° 0.1 mm 3 m/S 743 mmHg 90%
20:00 +13°C° 0.1 mm 3 m/S 744 mmHg 90%
21:00 +13°C° 0.1 mm 2 m/S 744 mmHg 90%
22:00 +11°C° 0.1 mm 3 m/S 744 mmHg 90%
23:00 +11°C° 0.1 mm 4 m/S 744 mmHg 90%

übermorgen, 10 Mai, Montag

Zeit Temperatur Niederschläge Wind Luftdruck Luftfeuchtigkeit
00:00 +9°C° 0.1 mm 5 m/S 744 mmHg 90%
01:00 +9°C° 0 mm 6 m/S 744 mmHg 90%
02:00 +8°C° 0 mm 6 m/S 745 mmHg 91%
03:00 +8°C° 0 mm 7 m/S 745 mmHg 92%
04:00 +8°C° 0 mm 7 m/S 745 mmHg 90%
05:00 +9°C° 0 mm 8 m/S 746 mmHg 89%
06:00 +9°C° 0 mm 8 m/S 746 mmHg 87%
07:00 +10°C° 0 mm 9 m/S 746 mmHg 79%
08:00 +11°C° 0 mm 9 m/S 747 mmHg 71%
09:00 +13°C° 0 mm 9 m/S 747 mmHg 63%
10:00 +15°C° 0 mm 9 m/S 747 mmHg 59%
11:00 +15°C° 0 mm 9 m/S 748 mmHg 56%
12:00 +16°C° 0 mm 8 m/S 748 mmHg 53%
13:00 +16°C° 0.1 mm 8 m/S 748 mmHg 55%
14:00 +15°C° 0.1 mm 7 m/S 748 mmHg 58%
15:00 +15°C° 0.1 mm 6 m/S 749 mmHg 61%
16:00 +14°C° 0.1 mm 5 m/S 749 mmHg 64%
17:00 +14°C° 0.1 mm 4 m/S 749 mmHg 68%
18:00 +13°C° 0.1 mm 3 m/S 749 mmHg 71%
19:00 +12°C° 0.1 mm 3 m/S 749 mmHg 76%
20:00 +10°C° 0.1 mm 3 m/S 750 mmHg 80%
21:00 +8°C° 0.1 mm 3 m/S 750 mmHg 85%
22:00 +8°C° 0 mm 3 m/S 750 mmHg 87%
23:00 +7°C° 0 mm 3 m/S 750 mmHg 90%

11 Mai, Dienstag

Zeit Temperatur Niederschläge Wind Luftdruck Luftfeuchtigkeit
00:00 +6°C° 0 mm 4 m/S 750 mmHg 92%
01:00 +6°C° 0 mm 4 m/S 750 mmHg 93%
02:00 +6°C° 0 mm 4 m/S 750 mmHg 94%
03:00 +5°C° 0 mm 4 m/S 750 mmHg 95%
04:00 +6°C° 0 mm 4 m/S 750 mmHg 94%
05:00 +6°C° 0 mm 4 m/S 750 mmHg 93%
06:00 +8°C° 0 mm 3 m/S 750 mmHg 92%
07:00 +9°C° 0 mm 5 m/S 750 mmHg 82%
08:00 +10°C° 0 mm 6 m/S 750 mmHg 72%
09:00 +12°C° 0 mm 7 m/S 750 mmHg 61%
10:00 +14°C° 0 mm 7 m/S 750 mmHg 61%
11:00 +13°C° 0 mm 8 m/S 750 mmHg 61%
12:00 +15°C° 0 mm 9 m/S 750 mmHg 60%
13:00 +15°C° 0 mm 8 m/S 750 mmHg 59%
14:00 +15°C° 0 mm 8 m/S 751 mmHg 58%
15:00 +15°C° 0 mm 8 m/S 751 mmHg 57%
16:00 +14°C° 0.1 mm 7 m/S 751 mmHg 65%
17:00 +12°C° 0.1 mm 7 m/S 752 mmHg 73%
18:00 +11°C° 0.1 mm 6 m/S 752 mmHg 80%
19:00 +10°C° 0 mm 6 m/S 753 mmHg 84%
20:00 +8°C° 0 mm 6 m/S 753 mmHg 87%
21:00 +7°C° 0 mm 5 m/S 754 mmHg 90%
22:00 +7°C° 0 mm 5 m/S 754 mmHg 91%
23:00 +5°C° 0 mm 6 m/S 754 mmHg 92%

12 Mai, Mittwoch

Zeit Temperatur Niederschläge Wind Luftdruck Luftfeuchtigkeit
00:00 +5°C° 0 mm 6 m/S 754 mmHg 92%
01:00 +5°C° 0 mm 5 m/S 754 mmHg 93%
02:00 +5°C° 0 mm 5 m/S 754 mmHg 94%
03:00 +3°C° 0 mm 5 m/S 754 mmHg 95%
04:00 +5°C° 0 mm 5 m/S 754 mmHg 93%
05:00 +5°C° 0 mm 4 m/S 754 mmHg 92%
06:00 +6°C° 0 mm 4 m/S 754 mmHg 91%
07:00 +8°C° 0 mm 4 m/S 754 mmHg 83%
08:00 +10°C° 0 mm 5 m/S 754 mmHg 75%
09:00 +13°C° 0 mm 5 m/S 754 mmHg 67%
10:00 +13°C° 0.3 mm 5 m/S 753 mmHg 68%
11:00 +13°C° 0.3 mm 4 m/S 753 mmHg 69%
12:00 +13°C° 0.3 mm 4 m/S 753 mmHg 70%
13:00 +12°C° 0.5 mm 4 m/S 753 mmHg 76%
14:00 +12°C° 0.5 mm 4 m/S 753 mmHg 83%
15:00 +11°C° 0.5 mm 3 m/S 753 mmHg 89%
16:00 +11°C° 1.1 mm 3 m/S 753 mmHg 92%
17:00 +10°C° 1.1 mm 2 m/S 753 mmHg 94%
18:00 +10°C° 1.1 mm 2 m/S 752 mmHg 96%
19:00 +10°C° 1.2 mm 2 m/S 752 mmHg 96%
20:00 +10°C° 1.2 mm 3 m/S 752 mmHg 96%
21:00 +10°C° 1.2 mm 3 m/S 752 mmHg 97%
22:00 +10°C° 0.6 mm 4 m/S 752 mmHg 97%
23:00 +8°C° 0.6 mm 4 m/S 752 mmHg 97%

13 Mai, Donnerstag

Zeit Temperatur Niederschläge Wind Luftdruck Luftfeuchtigkeit
00:00 +8°C° 0.6 mm 5 m/S 752 mmHg 97%
01:00 +7°C° 0.1 mm 4 m/S 752 mmHg 97%
02:00 +7°C° 0.1 mm 4 m/S 752 mmHg 97%
03:00 +7°C° 0.1 mm 3 m/S 752 mmHg 96%
04:00 +7°C° 0 mm 3 m/S 752 mmHg 96%
05:00 +7°C° 0 mm 3 m/S 752 mmHg 96%
06:00 +8°C° 0 mm 3 m/S 752 mmHg 96%
07:00 +9°C° 0.1 mm 3 m/S 752 mmHg 89%
08:00 +10°C° 0.1 mm 3 m/S 752 mmHg 83%
09:00 +12°C° 0.1 mm 3 m/S 752 mmHg 76%
10:00 +13°C° 0.2 mm 3 m/S 752 mmHg 71%
11:00 +13°C° 0.2 mm 3 m/S 752 mmHg 65%
12:00 +14°C° 0.2 mm 3 m/S 752 mmHg 59%
13:00 +14°C° 0.1 mm 3 m/S 752 mmHg 59%
14:00 +14°C° 0.1 mm 3 m/S 752 mmHg 58%
15:00 +14°C° 0.1 mm 3 m/S 752 mmHg 58%
16:00 +13°C° 0 mm 3 m/S 752 mmHg 64%
17:00 +12°C° 0 mm 3 m/S 752 mmHg 70%
18:00 +11°C° 0 mm 3 m/S 752 mmHg 76%
19:00 +10°C° 0 mm 2 m/S 752 mmHg 80%
20:00 +9°C° 0 mm 1 m/S 753 mmHg 84%
21:00 +7°C° 0 mm 0 m/S 753 mmHg 88%
22:00 +7°C° 0 mm 1 m/S 753 mmHg 88%
23:00 +7°C° 0 mm 1 m/S 753 mmHg 89%
Mehr zeigen

Wir brauchen deine Erlaubnis

Meteoprog und unser Service Anbieter werden persönliche Daten aufbewahren, so wie Cookies, Geräte Bezeichnung oder ähnliche Technologien von deinem Gerät und Prozess, so wie Persönliche Daten Inhalte und Werbungen, genauso wie social Media und den Verkehr zu analysieren.

  • Aufbewahrung und/oder Zugang zu deiner Geräte Informationen.

    Cookies, Geräte Bezeichnung oder andere Informationen, können aufbewahrt oder Zugang zu deinem Gerät erhalten, für den Grund, der oben angegeben wird.

  • Personalisierte Werbung und Inhalte, Messungen, Einblick in das Publikum und Produkt Entwicklung.

    Werbungen und Inhalte können personalisiert werden, basierend auf ein Profil. Mehr Daten können besser personalisierte Werbungen und Inhalte hinzufügen. Werbung und Inhalte können gezeigt und gemessen werden. Einblicke über das Publikum, welche die Werbung gesehen haben und den Inhalt, können abgeleitet werden. So wie Daten können genutzt werden, um es zu verbessern oder die Benutzer Erfahrung zu verbessern das System und die Software.

Wenn du “Ich stimme zu” klickst, erlaubst du uns, die Cookies zu benutzen die Geräte Bezeichnung, den Web oder ähnliche Technologien zu benutzen. Deine Settings, können in deinem Gerät bei deinem Browser geändert werden.

Für den bestimmten Zweck, berechtigten Interessen beruhen darauf, mehr als auf den Inhalt. Du kannst mehr darüber in unseren Privaten und Cookie Politik lesen.